User: anonymous   Login
Location: Chevoux
(46.3801°N, 4.9476°E)
Time: 05:15:01
(UTC+00:00)
Language:

Cosmos 372 Rocket - Orbit

View from above orbital plane
View from above orbital plane
View from above satellite
View from above satellite

Ground track
Ground track

The orbit data is extracted from the following two-line orbital elements,

1 04589U 70086B   21101.90665924  .00000071  00000-0  29921-4 0  9998
2 04589  74.0588 258.2509 0019928 123.2985 237.0083 14.41633590647736
Epoch (UTC): 11 April 2021 21:45:35
Eccentricity: 0.0019928
inclination: 74.0588°
perigee height: 739 km
apogee height: 767 km
right ascension of ascending node: 258.2509°
argument of perigee: 123.2985°
revolutions per day: 14.41633590
mean anomaly at epoch: 237.0083°
orbit number at epoch: 64773

The dashed part of the orbit path shows where the satellite is in the earth's shadow,  

DLR